Wind_Speed
57 58 59 58 57 57 58 59 61 61 62 62 63 64 64 65 65 65 65 64 64 63 61 60 58 58 57 56 56 56 56 56 56 56 57 57 56 55 55 55 54 54
58 59 60 61 59 58 59 60 61 62 62 62 62 63 65 66 67 67 67 67 66 64 63 62 61 60 59 58 57 57 57 57 57 57 57 57 57 57 57 57 56 56
60 58 59 61 61 60 60 60 62 64 64 64 62 62 63 65 67 68 68 68 67 66 65 63 62 61 60 59 58 58 58 58 58 58 59 59 58 58 58 58 58 58
63 59 58 60 61 61 62 62 63 64 65 66 65 64 63 63 65 66 68 69 68 68 66 65 64 63 61 60 59 59 59 59 59 60 60 60 59 59 58 58 59 59
65 62 60 61 62 62 63 65 66 66 65 66 66 67 66 65 64 64 65 67 68 69 68 67 65 64 62 61 60 60 60 60 60 60 61 60 60 59 59 59 59 59
66 64 63 63 64 64 65 66 68 68 67 66 66 66 67 66 65 64 63 64 65 68 69 68 67 65 64 63 62 61 61 61 61 62 62 62 62 61 61 61 60 58
67 66 65 64 65 67 67 68 69 70 69 67 66 65 66 66 66 65 64 62 62 65 67 69 68 67 66 65 64 64 63 63 63 63 64 64 64 64 63 62 60 58
68 68 67 67 67 69 70 70 71 72 72 70 67 65 64 65 65 66 65 63 62 61 63 66 68 68 68 67 67 66 65 65 65 65 66 67 66 66 64 63 61 59
69 70 69 69 70 71 73 74 74 75 75 73 70 66 64 62 62 63 64 64 63 61 61 62 66 69 70 70 69 68 68 67 68 68 69 69 69 68 66 65 63 61
72 73 73 73 74 75 76 76 76 75 75 73 72 70 67 63 61 61 62 63 63 63 62 62 64 67 70 71 71 71 70 70 71 72 72 73 73 71 69 68 66 64
75 76 77 76 75 75 76 77 77 76 75 73 71 70 69 67 64 61 62 63 63 64 64 65 65 67 69 71 72 72 72 73 74 74 75 76 76 74 73 71 69 67
78 79 80 80 79 77 76 76 78 80 80 78 75 73 71 69 67 65 63 64 65 67 68 69 69 70 70 71 71 72 72 74 76 77 77 78 78 78 77 75 72 70
82 82 83 84 85 85 83 80 80 83 86 85 83 82 79 75 72 70 67 66 66 69 71 72 73 73 73 72 72 72 72 74 75 77 78 79 79 80 79 77 74 70
88 87 87 85 85 86 87 85 83 84 87 89 88 87 86 83 80 77 75 72 70 70 73 76 76 76 76 76 76 76 76 76 76 76 77 77 77 77 76 75 72 70
89 90 90 90 87 84 83 84 84 83 84 87 89 89 89 88 87 85 83 82 80 76 75 77 80 80 79 79 80 80 81 81 81 81 81 79 78 77 76 75 73 71
88 89 90 91 91 88 85 85 85 84 83 84 86 89 90 91 90 89 89 89 89 86 81 79 80 83 83 83 83 83 83 84 84 84 84 84 84 83 82 81 80 78
91 92 92 93 94 93 92 92 92 91 89 86 85 86 88 91 92 92 91 91 92 91 88 83 81 83 86 87 86 86 85 85 85 85 86 87 87 88 88 87 87 85
96 96 96 96 97 98 98 98 97 96 95 93 90 87 86 87 89 90 91 91 90 90 89 87 83 83 86 88 89 89 88 88 88 88 89 89 89 89 89 88 87 86
99 99 99 100 100 101 101 101 100 99 98 97 96 93 89 86 86 86 86 87 88 88 88 88 86 85 87 89 90 91 91 91 91 91 91 91 90 89 89 88 87 86
103 102 102 102 102 103 103 103 102 102 101 100 99 98 95 92 88 86 84 84 85 86 86 86 87 87 88 89 90 91 92 92 93 93 93 92 92 90 89 88 87 85
105 105 105 105 105 105 105 104 104 103 103 103 103 102 100 98 94 91 88 86 85 85 86 86 86 87 89 90 90 91 92 92 92 92 93 93 93 92 89 86 85 84
104 105 106 106 107 107 107 107 106 105 105 105 105 104 104 103 101 97 94 91 89 87 86 86 86 87 89 90 90 91 91 91 91 91 92 93 93 92 89 85 82 81
101 102 103 104 105 107 108 108 108 107 106 106 106 106 105 105 105 103 100 98 95 92 90 88 87 87 88 89 89 90 90 90 89 90 91 93 94 93 89 84 79 77
98 98 99 100 101 103 104 106 107 107 107 107 106 106 105 105 105 106 105 103 100 98 96 93 90 89 89 90 90 90 90 90 89 90 91 92 95 95 91 85 80 77
95 95 96 97 97 98 99 101 103 104 105 105 105 105 105 105 104 104 104 105 104 103 101 98 95 92 91 92 91 91 91 91 91 92 92 93 95 97 94 90 84 79
91 92 92 93 94 95 96 97 99 100 101 102 103 103 103 104 103 103 102 102 103 104 104 103 100 96 93 93 93 92 92 93 93 93 93 94 96 96 94 91 85 80
Wind_Direction
257 260 261 260 258 256 255 254 254 255 255 256 256 255 255 256 256 256 256 256 256 256 256 255 254 254 253 252 253 253 254 255 256 256 257 257 257 257 256 256 256 257
255 258 258 260 259 257 256 255 253 253 253 254 255 255 255 255 256 256 256 257 256 256 255 254 254 253 253 252 252 252 252 252 253 253 254 254 255 255 255 255 256 257
255 256 256 258 259 259 258 256 254 252 251 251 252 254 255 255 256 256 256 257 256 256 255 254 254 253 252 251 251 251 251 251 251 251 251 251 251 251 252 253 255 256
255 256 253 254 255 257 258 258 256 254 252 251 250 251 252 253 254 255 256 256 256 255 255 254 253 252 251 250 250 250 250 250 250 250 249 249 249 249 250 251 253 255
254 254 252 252 252 253 255 256 257 256 254 252 251 250 250 250 251 253 255 255 255 255 254 253 252 252 251 250 249 249 249 249 249 249 248 248 247 247 248 249 251 254
254 253 252 251 250 250 251 253 255 256 256 254 253 252 251 251 250 251 252 254 254 254 253 252 251 251 250 249 248 248 248 248 248 247 247 246 246 246 247 249 251 254
255 253 252 250 249 250 250 251 253 255 256 255 254 254 253 252 251 250 250 251 252 254 254 253 252 251 250 249 249 248 248 247 247 247 246 246 246 247 248 250 252 253
254 253 252 250 249 249 249 250 251 252 254 254 254 255 255 254 253 251 250 249 250 252 254 255 254 253 251 250 249 248 247 247 247 247 247 247 248 248 249 250 251 253
253 253 253 251 250 249 248 248 248 249 250 252 253 254 255 256 256 255 253 251 250 250 252 254 254 254 253 251 250 248 247 248 248 249 249 250 250 250 251 251 252 252
253 252 252 252 253 252 250 249 248 247 248 249 251 252 253 254 256 257 256 254 252 251 251 252 253 252 252 251 251 250 249 249 250 250 251 251 251 251 251 251 251 251
254 252 250 250 250 250 251 252 252 251 249 250 251 252 253 253 254 256 256 255 253 252 251 251 251 250 249 248 249 250 251 252 253 253 254 253 253 252 252 252 251 251
257 255 253 253 253 252 250 251 254 255 255 254 254 255 256 255 254 254 255 255 254 252 251 250 250 249 247 246 245 246 248 250 252 254 255 256 256 255 254 253 252 252
260 259 257 257 258 258 256 254 254 256 258 259 258 257 257 256 256 255 255 256 256 254 252 250 249 249 248 246 246 246 246 248 249 251 253 254 255 255 255 254 253 254
261 261 261 261 260 261 262 262 260 258 258 259 261 260 258 257 257 256 256 256 256 255 253 251 250 249 249 249 248 249 249 249 250 251 252 253 253 254 254 254 254 256
262 261 261 261 261 262 263 264 264 263 261 260 260 261 260 259 257 257 256 256 256 255 253 251 250 249 249 249 250 250 250 251 251 252 252 253 253 254 255 255 256 257
263 262 261 261 260 261 262 263 264 264 263 262 261 261 260 260 259 258 256 256 256 256 254 251 250 250 249 249 250 250 251 251 252 252 253 253 254 254 256 257 258 259
267 266 264 263 261 261 261 262 263 264 263 262 261 260 260 260 259 259 258 257 257 257 256 252 250 249 250 249 249 249 250 251 252 252 253 254 255 255 256 257 258 259
270 269 268 267 266 264 263 262 262 262 262 261 260 259 259 259 259 259 258 258 257 257 257 254 251 248 249 250 250 250 250 251 251 252 253 254 255 257 258 259 259 260
270 269 269 268 268 268 267 265 263 262 260 260 259 259 258 257 256 256 256 256 256 256 256 255 253 250 249 249 251 251 251 252 253 253 254 255 256 257 259 260 262 263
269 268 268 267 267 267 268 268 267 265 263 260 259 258 257 256 255 254 253 253 253 253 253 253 253 251 250 249 249 251 252 253 254 255 256 257 258 259 260 261 262 263
268 268 267 266 266 266 265 266 266 266 265 263 261 259 257 256 255 254 252 251 251 251 251 250 250 250 249 249 249 250 251 252 254 255 257 258 259 260 262 262 261 260
268 268 267 266 265 265 264 264 263 264 264 264 263 261 259 257 256 254 253 252 250 250 250 249 248 248 248 248 248 249 250 252 253 255 257 259 260 261 261 262 260 257
270 269 267 266 265 264 264 263 262 262 262 262 262 262 261 260 258 256 254 252 251 250 250 249 248 248 248 247 247 248 249 251 253 254 256 258 259 260 260 260 259 258
273 272 270 268 267 265 264 263 262 261 261 260 260 260 260 260 259 258 256 254 252 251 250 249 249 249 249 248 248 248 249 250 252 254 256 257 258 259 260 259 259 259
275 274 273 272 270 268 267 265 264 262 261 260 260 259 259 259 259 259 258 257 255 253 251 250 249 249 249 249 249 249 250 251 251 253 255 256 256 257 259 259 259 260
276 275 274 273 272 271 269 268 267 265 263 262 261 260 259 258 258 258 258 257 257 256 254 252 250 249 248 249 249 249 250 251 252 252 253 254 255 256 258 259 259 260
Height
5683 5682 5681 5680 5679 5679 5679 5679 5679 5679 5679 5679 5679 5678 5678 5678 5678 5678 5678 5677 5677 5677 5676 5675 5675 5675 5675 5676 5677 5678 5679 5681 5682 5684 5685 5686 5687 5688 5688 5688 5687 5687
5674 5674 5673 5672 5671 5670 5670 5670 5669 5669 5669 5669 5669 5669 5669 5668 5668 5669 5669 5669 5670 5669 5669 5668 5668 5667 5667 5668 5669 5670 5671 5672 5673 5675 5676 5677 5679 5679 5680 5680 5680 5680
5664 5664 5663 5662 5662 5661 5661 5661 5660 5659 5659 5658 5659 5659 5659 5659 5659 5660 5661 5661 5662 5662 5661 5661 5660 5660 5660 5660 5660 5661 5662 5663 5665 5666 5667 5668 5669 5670 5671 5671 5671 5672
5653 5653 5653 5653 5652 5652 5651 5651 5650 5650 5649 5649 5649 5648 5648 5649 5650 5651 5651 5652 5652 5653 5653 5653 5653 5652 5652 5652 5652 5652 5654 5655 5656 5657 5658 5659 5660 5661 5662 5662 5662 5663
5643 5642 5642 5642 5642 5642 5642 5641 5640 5640 5640 5640 5640 5639 5639 5639 5639 5640 5641 5642 5643 5643 5644 5644 5644 5644 5645 5645 5645 5645 5645 5646 5648 5649 5650 5651 5652 5652 5653 5653 5654 5655
5632 5632 5632 5632 5632 5633 5633 5632 5631 5630 5630 5630 5630 5631 5630 5630 5629 5630 5631 5632 5633 5634 5635 5635 5635 5636 5636 5637 5637 5638 5638 5639 5639 5640 5641 5643 5643 5643 5644 5644 5646 5647
5622 5622 5622 5622 5623 5623 5623 5623 5622 5621 5620 5621 5621 5621 5621 5621 5621 5620 5620 5621 5623 5624 5626 5626 5626 5627 5627 5628 5629 5630 5630 5631 5632 5632 5633 5634 5634 5635 5636 5637 5638 5639
5612 5612 5612 5612 5613 5613 5613 5613 5613 5612 5611 5611 5612 5612 5611 5612 5612 5611 5611 5612 5613 5614 5616 5617 5618 5619 5619 5619 5620 5621 5622 5623 5623 5624 5625 5626 5627 5627 5628 5629 5629 5630
5603 5603 5603 5603 5603 5602 5602 5602 5602 5602 5602 5602 5602 5602 5602 5603 5602 5602 5603 5603 5604 5604 5605 5607 5608 5610 5610 5611 5612 5613 5613 5614 5614 5615 5616 5618 5619 5620 5620 5620 5621 5621
5593 5592 5592 5592 5592 5592 5592 5591 5591 5591 5591 5591 5592 5592 5592 5593 5593 5593 5593 5594 5595 5595 5596 5596 5597 5599 5601 5602 5603 5604 5604 5605 5605 5605 5607 5608 5609 5611 5611 5611 5612 5612
5581 5581 5580 5580 5580 5581 5581 5580 5580 5580 5580 5580 5581 5581 5581 5582 5582 5583 5584 5584 5585 5586 5586 5587 5587 5588 5590 5591 5593 5594 5595 5595 5595 5596 5598 5599 5600 5601 5601 5602 5602 5603
5569 5569 5568 5568 5568 5569 5569 5570 5570 5569 5569 5569 5570 5570 5570 5570 5571 5572 5573 5574 5575 5576 5576 5577 5577 5578 5579 5581 5582 5582 5583 5584 5585 5586 5588 5589 5591 5591 5591 5592 5593 5594
5557 5557 5556 5556 5556 5556 5557 5558 5559 5559 5558 5557 5557 5558 5559 5559 5560 5560 5562 5563 5564 5566 5567 5567 5568 5569 5569 5570 5571 5571 5572 5572 5573 5575 5577 5578 5580 5581 5581 5582 5583 5585
5545 5544 5544 5543 5543 5543 5543 5544 5545 5546 5546 5545 5545 5545 5546 5547 5548 5549 5550 5551 5553 5555 5556 5557 5558 5559 5560 5560 5560 5560 5560 5561 5562 5564 5565 5567 5569 5570 5571 5572 5574 5576
5532 5531 5531 5530 5530 5531 5531 5531 5532 5532 5533 5533 5533 5532 5533 5533 5535 5536 5537 5539 5540 5542 5545 5546 5547 5549 5550 5549 5548 5548 5549 5549 5550 5551 5553 5555 5557 5559 5560 5562 5564 5565
5518 5518 5518 5517 5517 5517 5518 5518 5519 5519 5519 5520 5520 5520 5520 5520 5521 5523 5524 5525 5527 5529 5531 5534 5537 5538 5538 5537 5537 5537 5537 5537 5538 5539 5541 5542 5545 5547 5549 5551 5553 5555
5503 5503 5503 5503 5502 5502 5502 5503 5503 5504 5505 5506 5506 5507 5507 5507 5508 5509 5511 5512 5513 5515 5517 5520 5524 5526 5526 5525 5526 5526 5526 5526 5527 5528 5529 5530 5533 5535 5537 5540 5542 5544
5487 5487 5487 5486 5485 5485 5486 5487 5488 5489 5489 5490 5492 5493 5493 5494 5494 5495 5496 5498 5499 5502 5503 5505 5509 5512 5512 5512 5514 5514 5514 5514 5515 5516 5517 5518 5522 5524 5526 5528 5530 5534
5472 5472 5471 5470 5469 5468 5468 5469 5471 5473 5474 5474 5475 5477 5479 5480 5481 5481 5482 5483 5485 5488 5490 5492 5495 5497 5497 5498 5500 5501 5501 5502 5502 5504 5505 5507 5511 5514 5516 5517 5520 5523
5456 5455 5455 5454 5454 5452 5451 5451 5452 5453 5456 5457 5458 5460 5462 5464 5466 5467 5468 5469 5471 5473 5476 5479 5482 5482 5482 5484 5486 5486 5487 5488 5489 5491 5493 5495 5499 5502 5504 5506 5509 5512
5439 5438 5438 5437 5437 5436 5436 5436 5435 5435 5436 5438 5440 5443 5445 5447 5450 5452 5454 5455 5457 5459 5461 5465 5469 5469 5468 5470 5471 5472 5473 5473 5474 5477 5479 5483 5486 5489 5492 5494 5497 5500
5423 5422 5421 5420 5419 5419 5419 5419 5419 5420 5420 5419 5420 5423 5426 5428 5431 5435 5438 5440 5442 5444 5446 5451 5455 5455 5455 5456 5458 5458 5459 5460 5462 5464 5467 5470 5473 5476 5479 5482 5484 5488
5405 5404 5404 5403 5402 5401 5401 5401 5401 5402 5404 5403 5403 5405 5407 5410 5412 5415 5420 5423 5427 5429 5431 5436 5441 5442 5441 5442 5444 5444 5445 5447 5449 5452 5454 5458 5461 5463 5465 5469 5473 5475
5388 5386 5386 5385 5384 5383 5382 5381 5382 5383 5385 5385 5385 5387 5390 5392 5393 5396 5401 5405 5409 5413 5415 5419 5425 5428 5428 5428 5430 5430 5430 5433 5435 5438 5441 5446 5448 5450 5452 5456 5460 5462
5372 5370 5368 5367 5366 5366 5364 5363 5363 5364 5365 5367 5367 5369 5372 5374 5376 5378 5382 5386 5390 5394 5398 5402 5408 5413 5414 5414 5415 5416 5416 5418 5421 5424 5429 5433 5435 5437 5439 5443 5447 5450
5357 5354 5353 5351 5349 5348 5348 5347 5346 5346 5347 5348 5349 5351 5353 5356 5359 5361 5364 5369 5372 5374 5378 5382 5389 5396 5399 5399 5400 5402 5402 5404 5406 5411 5417 5420 5421 5423 5426 5429 5434 5438